Year,Month,Day,Hour,Minute,Value (Times are PST for temperature in C)
2015,06,09,00,00,14.80
2015,06,09,00,01,14.80
2015,06,09,00,02,14.80
2015,06,09,00,03,14.80
2015,06,09,00,04,14.80
2015,06,09,00,05,14.80
2015,06,09,00,06,14.80
2015,06,09,00,07,14.80
2015,06,09,00,08,14.80
2015,06,09,00,09,14.80
2015,06,09,00,10,14.70
2015,06,09,00,11,14.70
2015,06,09,00,12,14.70
2015,06,09,00,13,14.70
2015,06,09,00,14,14.70
2015,06,09,00,15,14.70
2015,06,09,00,16,14.70
2015,06,09,00,17,14.60
2015,06,09,00,18,14.60
2015,06,09,00,19,14.60
2015,06,09,00,20,14.60
2015,06,09,00,21,14.60
2015,06,09,00,22,14.70
2015,06,09,00,23,14.70
2015,06,09,00,24,14.70
2015,06,09,00,25,14.70
2015,06,09,00,26,14.80
2015,06,09,00,27,14.80
2015,06,09,00,28,14.80
2015,06,09,00,29,14.80
2015,06,09,00,30,14.80
2015,06,09,00,31,14.80
2015,06,09,00,32,14.80
2015,06,09,00,33,14.80
2015,06,09,00,34,14.80
2015,06,09,00,35,14.80
2015,06,09,00,36,14.70
2015,06,09,00,37,14.70
2015,06,09,00,38,14.70
2015,06,09,00,39,14.60
2015,06,09,00,40,14.60
2015,06,09,00,41,14.50
2015,06,09,00,42,14.50
2015,06,09,00,43,14.50
2015,06,09,00,44,14.40
2015,06,09,00,45,14.40
2015,06,09,00,46,14.40
2015,06,09,00,47,14.40
2015,06,09,00,48,14.40
2015,06,09,00,49,14.40
2015,06,09,00,50,14.40
2015,06,09,00,51,14.40
2015,06,09,00,52,14.50
2015,06,09,00,53,14.50
2015,06,09,00,54,14.60
2015,06,09,00,55,14.60
2015,06,09,00,56,14.60
2015,06,09,00,57,14.60
2015,06,09,00,58,14.60
2015,06,09,00,59,14.60
2015,06,09,01,00,14.60
2015,06,09,01,01,14.60
2015,06,09,01,02,14.60
2015,06,09,01,03,14.60
2015,06,09,01,04,14.50
2015,06,09,01,05,14.50
2015,06,09,01,06,14.50
2015,06,09,01,07,14.40
2015,06,09,01,08,14.40
2015,06,09,01,09,14.30
2015,06,09,01,10,14.30
2015,06,09,01,11,14.30
2015,06,09,01,12,14.20
2015,06,09,01,13,14.20
2015,06,09,01,14,14.20
2015,06,09,01,15,14.10
2015,06,09,01,16,14.10
2015,06,09,01,17,14.10
2015,06,09,01,18,14.00
2015,06,09,01,19,14.00
2015,06,09,01,20,14.00
2015,06,09,01,21,13.90
2015,06,09,01,22,13.90
2015,06,09,01,23,13.90
2015,06,09,01,24,13.90
2015,06,09,01,25,13.90
2015,06,09,01,26,13.90
2015,06,09,01,27,13.80
2015,06,09,01,28,13.80
2015,06,09,01,29,13.80
2015,06,09,01,30,13.80
2015,06,09,01,31,13.80
2015,06,09,01,32,13.80
2015,06,09,01,33,13.70
2015,06,09,01,34,13.80
2015,06,09,01,35,13.70
2015,06,09,01,36,13.80
2015,06,09,01,37,13.80
2015,06,09,01,38,13.80
2015,06,09,01,39,13.80
2015,06,09,01,40,13.80
2015,06,09,01,41,13.80
2015,06,09,01,42,13.80
2015,06,09,01,43,13.70
2015,06,09,01,44,13.70
2015,06,09,01,45,13.70
2015,06,09,01,46,13.70
2015,06,09,01,47,13.70
2015,06,09,01,48,13.70
2015,06,09,01,49,13.70
2015,06,09,01,50,13.70
2015,06,09,01,51,13.70
2015,06,09,01,52,13.70
2015,06,09,01,53,13.70
2015,06,09,01,54,13.70
2015,06,09,01,55,13.70
2015,06,09,01,56,13.70
2015,06,09,01,57,13.70
2015,06,09,01,58,13.70
2015,06,09,01,59,13.70
2015,06,09,02,00,13.70
2015,06,09,02,01,13.70
2015,06,09,02,02,13.70
2015,06,09,02,03,13.70
2015,06,09,02,04,13.70
2015,06,09,02,05,13.70
2015,06,09,02,06,13.70
2015,06,09,02,07,13.70
2015,06,09,02,08,13.70
2015,06,09,02,09,13.70
2015,06,09,02,10,13.70
2015,06,09,02,11,13.70
2015,06,09,02,12,13.70
2015,06,09,02,13,13.70
2015,06,09,02,14,13.70
2015,06,09,02,15,13.70
2015,06,09,02,16,13.60
2015,06,09,02,17,13.60
2015,06,09,02,18,13.60
2015,06,09,02,19,13.60
2015,06,09,02,20,13.60
2015,06,09,02,21,13.60
2015,06,09,02,22,13.60
2015,06,09,02,23,13.60
2015,06,09,02,24,13.60
2015,06,09,02,25,13.50
2015,06,09,02,26,13.50
2015,06,09,02,27,13.40
2015,06,09,02,28,13.40
2015,06,09,02,29,13.40
2015,06,09,02,30,13.40
2015,06,09,02,31,13.40
2015,06,09,02,32,13.30
2015,06,09,02,33,13.30
2015,06,09,02,34,13.30
2015,06,09,02,35,13.30
2015,06,09,02,36,13.30
2015,06,09,02,37,13.30
2015,06,09,02,38,13.30
2015,06,09,02,39,13.30
2015,06,09,02,40,13.30
2015,06,09,02,41,13.30
2015,06,09,02,42,13.30
2015,06,09,02,43,13.30
2015,06,09,02,44,13.30
2015,06,09,02,45,13.30
2015,06,09,02,46,13.30
2015,06,09,02,47,13.40
2015,06,09,02,48,13.30
2015,06,09,02,49,13.30
2015,06,09,02,50,13.30
2015,06,09,02,51,13.30
2015,06,09,02,52,13.30
2015,06,09,02,53,13.30
2015,06,09,02,54,13.30
2015,06,09,02,55,13.40
2015,06,09,02,56,13.40
2015,06,09,02,57,13.40
2015,06,09,02,58,13.40
2015,06,09,02,59,13.40
2015,06,09,03,00,13.30
2015,06,09,03,01,13.30
2015,06,09,03,02,13.30
2015,06,09,03,03,13.30
2015,06,09,03,04,13.30
2015,06,09,03,05,13.30
2015,06,09,03,06,13.30
2015,06,09,03,07,13.30
2015,06,09,03,08,13.20
2015,06,09,03,09,13.20
2015,06,09,03,10,13.20
2015,06,09,03,11,13.20
2015,06,09,03,12,13.10
2015,06,09,03,13,13.10
2015,06,09,03,14,13.10
2015,06,09,03,15,13.10
2015,06,09,03,16,13.00
2015,06,09,03,17,13.00
2015,06,09,03,18,13.00
2015,06,09,03,19,13.00
2015,06,09,03,20,12.90
2015,06,09,03,21,12.90
2015,06,09,03,22,12.90
2015,06,09,03,23,12.90
2015,06,09,03,24,12.80
2015,06,09,03,25,12.80
2015,06,09,03,26,12.80
2015,06,09,03,27,12.80
2015,06,09,03,28,12.80
2015,06,09,03,29,12.80
2015,06,09,03,30,12.70
2015,06,09,03,31,12.70
2015,06,09,03,32,12.70
2015,06,09,03,33,12.70
2015,06,09,03,34,12.70
2015,06,09,03,35,12.70
2015,06,09,03,36,12.70
2015,06,09,03,37,12.70
2015,06,09,03,38,12.60
2015,06,09,03,39,12.60
2015,06,09,03,40,12.60
2015,06,09,03,41,12.60
2015,06,09,03,42,12.60
2015,06,09,03,43,12.60
2015,06,09,03,44,12.60
2015,06,09,03,45,12.60
2015,06,09,03,46,12.50
2015,06,09,03,47,12.50
2015,06,09,03,48,12.50
2015,06,09,03,49,12.50
2015,06,09,03,50,12.60
2015,06,09,03,51,12.60
2015,06,09,03,52,12.60
2015,06,09,03,53,12.70
2015,06,09,03,54,12.70
2015,06,09,03,55,12.70
2015,06,09,03,56,12.80
2015,06,09,03,57,12.80
2015,06,09,03,58,12.80
2015,06,09,03,59,12.80
2015,06,09,04,00,12.80
2015,06,09,04,01,12.80
2015,06,09,04,02,12.90
2015,06,09,04,03,12.90
2015,06,09,04,04,12.90
2015,06,09,04,05,12.90
2015,06,09,04,06,12.90
2015,06,09,04,07,12.90
2015,06,09,04,08,12.90
2015,06,09,04,09,12.90
2015,06,09,04,10,12.90
2015,06,09,04,11,12.90
2015,06,09,04,12,12.90
2015,06,09,04,13,12.90
2015,06,09,04,14,12.90
2015,06,09,04,15,12.90
2015,06,09,04,16,12.90
2015,06,09,04,17,12.90
2015,06,09,04,18,12.90
2015,06,09,04,19,12.90
2015,06,09,04,20,12.90
2015,06,09,04,21,12.90
2015,06,09,04,22,12.90
2015,06,09,04,23,12.90
2015,06,09,04,24,12.90
2015,06,09,04,25,12.90
2015,06,09,04,26,12.80
2015,06,09,04,27,12.80
2015,06,09,04,28,12.80
2015,06,09,04,29,12.80
2015,06,09,04,30,12.80
2015,06,09,04,31,12.80
2015,06,09,04,32,12.80
2015,06,09,04,33,12.80
2015,06,09,04,34,12.80
2015,06,09,04,35,12.80
2015,06,09,04,36,12.80
2015,06,09,04,37,12.80
2015,06,09,04,38,12.80
2015,06,09,04,39,12.80
2015,06,09,04,40,12.80
2015,06,09,04,41,12.80
2015,06,09,04,42,12.80
2015,06,09,04,43,12.80
2015,06,09,04,44,12.80
2015,06,09,04,45,12.80
2015,06,09,04,46,12.80
2015,06,09,04,47,12.80
2015,06,09,04,48,12.80
2015,06,09,04,49,12.80
2015,06,09,04,50,12.80
2015,06,09,04,51,12.80
2015,06,09,04,52,12.80
2015,06,09,04,53,12.80
2015,06,09,04,54,12.80
2015,06,09,04,55,12.80
2015,06,09,04,56,12.80
2015,06,09,04,57,12.80
2015,06,09,04,58,12.80
2015,06,09,04,59,12.80
2015,06,09,05,00,12.80
2015,06,09,05,01,12.80
2015,06,09,05,02,12.80
2015,06,09,05,03,12.70
2015,06,09,05,04,12.70
2015,06,09,05,05,12.70
2015,06,09,05,06,12.70
2015,06,09,05,07,12.70
2015,06,09,05,08,12.60
2015,06,09,05,09,12.60
2015,06,09,05,10,12.60
2015,06,09,05,11,12.60
2015,06,09,05,12,12.60
2015,06,09,05,13,12.60
2015,06,09,05,14,12.60
2015,06,09,05,15,12.60
2015,06,09,05,16,12.60
2015,06,09,05,17,12.60
2015,06,09,05,18,12.60
2015,06,09,05,19,12.60
2015,06,09,05,20,12.60
2015,06,09,05,21,12.60
2015,06,09,05,22,12.60
2015,06,09,05,23,12.60
2015,06,09,05,24,12.60
2015,06,09,05,25,12.50
2015,06,09,05,26,12.50
2015,06,09,05,27,12.50
2015,06,09,05,28,12.50
2015,06,09,05,29,12.50
2015,06,09,05,30,12.50
2015,06,09,05,31,12.50
2015,06,09,05,32,12.50
2015,06,09,05,33,12.50
2015,06,09,05,34,12.50
2015,06,09,05,35,12.50
2015,06,09,05,36,12.50
2015,06,09,05,37,12.50
2015,06,09,05,38,12.40
2015,06,09,05,39,12.40
2015,06,09,05,40,12.40
2015,06,09,05,41,12.40
2015,06,09,05,42,12.50
2015,06,09,05,43,12.50
2015,06,09,05,44,12.50
2015,06,09,05,45,12.50
2015,06,09,05,46,12.50
2015,06,09,05,47,12.60
2015,06,09,05,48,12.60
2015,06,09,05,49,12.60
2015,06,09,05,50,12.60
2015,06,09,05,51,12.60
2015,06,09,05,52,12.60
2015,06,09,05,53,12.60
2015,06,09,05,54,12.60
2015,06,09,05,55,12.60
2015,06,09,05,56,12.60
2015,06,09,05,57,12.60
2015,06,09,05,58,12.60
2015,06,09,05,59,12.60
2015,06,09,06,00,12.60
2015,06,09,06,01,12.50
2015,06,09,06,02,12.50
2015,06,09,06,03,12.50
2015,06,09,06,04,12.50
2015,06,09,06,05,12.50
2015,06,09,06,06,12.50
2015,06,09,06,07,12.50
2015,06,09,06,08,12.50
2015,06,09,06,09,12.50
2015,06,09,06,10,12.50
2015,06,09,06,11,12.50
2015,06,09,06,12,12.50
2015,06,09,06,13,12.50
2015,06,09,06,14,12.60
2015,06,09,06,15,12.60
2015,06,09,06,16,12.60
2015,06,09,06,17,12.60
2015,06,09,06,18,12.60
2015,06,09,06,19,12.60
2015,06,09,06,20,12.60
2015,06,09,06,21,12.60
2015,06,09,06,22,12.60
2015,06,09,06,23,12.60
2015,06,09,06,24,12.60
2015,06,09,06,25,12.60
2015,06,09,06,26,12.60
2015,06,09,06,27,12.60
2015,06,09,06,28,12.70
2015,06,09,06,29,12.70
2015,06,09,06,30,12.70
2015,06,09,06,31,12.70
2015,06,09,06,32,12.70
2015,06,09,06,33,12.70
2015,06,09,06,34,12.70
2015,06,09,06,35,12.70
2015,06,09,06,36,12.80
2015,06,09,06,37,12.80
2015,06,09,06,38,12.80
2015,06,09,06,39,12.80
2015,06,09,06,40,12.80
2015,06,09,06,41,12.80
2015,06,09,06,42,12.80
2015,06,09,06,43,12.90
2015,06,09,06,44,12.90
2015,06,09,06,45,12.90
2015,06,09,06,46,12.90
2015,06,09,06,47,12.90
2015,06,09,06,48,12.90
2015,06,09,06,49,12.90
2015,06,09,06,50,12.90
2015,06,09,06,51,12.90
2015,06,09,06,52,12.90
2015,06,09,06,53,12.90
2015,06,09,06,54,12.90
2015,06,09,06,55,13.00
2015,06,09,06,56,13.00
2015,06,09,06,57,13.10
2015,06,09,06,58,13.10
2015,06,09,06,59,13.10
2015,06,09,07,00,13.10
2015,06,09,07,01,13.10
2015,06,09,07,02,13.10
2015,06,09,07,03,13.20
2015,06,09,07,04,13.20
2015,06,09,07,05,13.20
2015,06,09,07,06,13.30
2015,06,09,07,07,13.30
2015,06,09,07,08,13.30
2015,06,09,07,09,13.40
2015,06,09,07,10,13.40
2015,06,09,07,11,13.40
2015,06,09,07,12,13.50
2015,06,09,07,13,13.50
2015,06,09,07,14,13.50
2015,06,09,07,15,13.60
2015,06,09,07,16,13.60
2015,06,09,07,17,13.60
2015,06,09,07,18,13.70
2015,06,09,07,19,13.70
2015,06,09,07,20,13.70
2015,06,09,07,21,13.70
2015,06,09,07,22,13.80
2015,06,09,07,23,13.80
2015,06,09,07,24,13.80
2015,06,09,07,25,13.90
2015,06,09,07,26,13.90
2015,06,09,07,27,13.90
2015,06,09,07,28,13.90
2015,06,09,07,29,13.90
2015,06,09,07,30,13.90
2015,06,09,07,31,13.90
2015,06,09,07,32,14.00
2015,06,09,07,33,14.00
2015,06,09,07,34,14.00
2015,06,09,07,35,14.10
2015,06,09,07,36,14.10
2015,06,09,07,37,14.10
2015,06,09,07,38,14.10
2015,06,09,07,39,14.10
2015,06,09,07,40,14.10
2015,06,09,07,41,14.20
2015,06,09,07,42,14.20
2015,06,09,07,43,14.20
2015,06,09,07,44,14.20
2015,06,09,07,45,14.20
2015,06,09,07,46,14.20
2015,06,09,07,47,14.20
2015,06,09,07,48,14.30
2015,06,09,07,49,14.30
2015,06,09,07,50,14.30
2015,06,09,07,51,14.30
2015,06,09,07,52,14.30
2015,06,09,07,53,14.40
2015,06,09,07,54,14.40
2015,06,09,07,55,14.50
2015,06,09,07,56,14.50
2015,06,09,07,57,14.50
2015,06,09,07,58,14.50
2015,06,09,07,59,14.60
2015,06,09,08,00,14.60
2015,06,09,08,01,14.60
2015,06,09,08,02,14.60
2015,06,09,08,03,14.60
2015,06,09,08,04,14.60
2015,06,09,08,05,14.60
2015,06,09,08,06,14.60
2015,06,09,08,07,14.60
2015,06,09,08,08,14.60
2015,06,09,08,09,14.60
2015,06,09,08,10,14.60
2015,06,09,08,11,14.70
2015,06,09,08,12,14.70
2015,06,09,08,13,14.70
2015,06,09,08,14,14.80
2015,06,09,08,15,14.80
2015,06,09,08,16,14.80
2015,06,09,08,17,14.80
2015,06,09,08,18,14.90
2015,06,09,08,19,14.90
2015,06,09,08,20,14.90
2015,06,09,08,21,14.90
2015,06,09,08,22,14.90
2015,06,09,08,23,14.90
2015,06,09,08,24,14.90
2015,06,09,08,25,14.90
2015,06,09,08,26,14.90
2015,06,09,08,27,14.90
2015,06,09,08,28,14.90
2015,06,09,08,29,15.00
2015,06,09,08,30,15.10
2015,06,09,08,31,15.10
2015,06,09,08,32,15.10
2015,06,09,08,33,15.10
2015,06,09,08,34,15.10
2015,06,09,08,35,15.10
2015,06,09,08,36,15.10
2015,06,09,08,37,15.10
2015,06,09,08,38,15.10
2015,06,09,08,39,15.10
2015,06,09,08,40,15.20
2015,06,09,08,41,15.20
2015,06,09,08,42,15.20
2015,06,09,08,43,15.30
2015,06,09,08,44,15.30
2015,06,09,08,45,15.30
2015,06,09,08,46,15.40
2015,06,09,08,47,15.40
2015,06,09,08,48,15.50
2015,06,09,08,49,15.60
2015,06,09,08,50,15.60
2015,06,09,08,51,15.60
2015,06,09,08,52,15.70
2015,06,09,08,53,15.70
2015,06,09,08,54,15.70
2015,06,09,08,55,15.80
2015,06,09,08,56,15.80
2015,06,09,08,57,15.80
2015,06,09,08,58,15.80
2015,06,09,08,59,15.80
2015,06,09,09,00,15.90
2015,06,09,09,01,15.90
2015,06,09,09,02,15.90
2015,06,09,09,03,15.90
2015,06,09,09,04,15.90
2015,06,09,09,05,15.90
2015,06,09,09,06,15.90
2015,06,09,09,07,15.80
2015,06,09,09,08,15.80
2015,06,09,09,09,15.80
2015,06,09,09,10,15.80
2015,06,09,09,11,15.80
2015,06,09,09,12,15.80
2015,06,09,09,13,15.80
2015,06,09,09,14,15.90
2015,06,09,09,15,16.00
2015,06,09,09,16,16.00
2015,06,09,09,17,16.10
2015,06,09,09,18,16.10
2015,06,09,09,19,16.10
2015,06,09,09,20,16.10
2015,06,09,09,21,16.10
2015,06,09,09,22,16.20
2015,06,09,09,23,16.20
2015,06,09,09,24,16.10
2015,06,09,09,25,16.10
2015,06,09,09,26,16.20
2015,06,09,09,27,16.20
2015,06,09,09,28,16.30
2015,06,09,09,29,16.40
2015,06,09,09,30,16.40
2015,06,09,09,31,16.40
2015,06,09,09,32,16.50
2015,06,09,09,33,16.50
2015,06,09,09,34,16.50
2015,06,09,09,35,16.60
2015,06,09,09,36,16.70
2015,06,09,09,37,16.80
2015,06,09,09,38,16.80
2015,06,09,09,39,16.80
2015,06,09,09,40,16.80
2015,06,09,09,41,16.90
2015,06,09,09,42,16.90
2015,06,09,09,43,17.00
2015,06,09,09,44,17.10
2015,06,09,09,45,17.00
2015,06,09,09,46,16.90
2015,06,09,09,47,16.80
2015,06,09,09,48,16.80
2015,06,09,09,49,16.80
2015,06,09,09,50,16.80
2015,06,09,09,51,16.80
2015,06,09,09,52,16.80
2015,06,09,09,53,16.90
2015,06,09,09,54,17.00
2015,06,09,09,55,17.00
2015,06,09,09,56,17.00
2015,06,09,09,57,17.00
2015,06,09,09,58,17.00
2015,06,09,09,59,17.10
2015,06,09,10,00,17.20
2015,06,09,10,01,17.30
2015,06,09,10,02,17.30
2015,06,09,10,03,17.20
2015,06,09,10,04,17.20
2015,06,09,10,05,17.20
2015,06,09,10,06,17.10
2015,06,09,10,07,17.10
2015,06,09,10,08,17.20
2015,06,09,10,09,17.20
2015,06,09,10,10,17.20
2015,06,09,10,11,17.20
2015,06,09,10,12,17.30
2015,06,09,10,13,17.40
2015,06,09,10,14,17.50
2015,06,09,10,15,17.60
2015,06,09,10,16,17.70
2015,06,09,10,17,17.70
2015,06,09,10,18,17.80
2015,06,09,10,19,17.80
2015,06,09,10,20,17.80
2015,06,09,10,21,17.90
2015,06,09,10,22,17.90
2015,06,09,10,23,17.90
2015,06,09,10,24,17.90
2015,06,09,10,25,17.80
2015,06,09,10,26,17.80
2015,06,09,10,27,17.80
2015,06,09,10,28,17.80
2015,06,09,10,29,17.80
2015,06,09,10,30,17.80
2015,06,09,10,31,18.00
2015,06,09,10,32,18.10
2015,06,09,10,33,18.20
2015,06,09,10,34,18.20
2015,06,09,10,35,18.20
2015,06,09,10,36,18.20
2015,06,09,10,37,18.20
2015,06,09,10,38,18.20
2015,06,09,10,39,18.20
2015,06,09,10,40,18.20
2015,06,09,10,41,18.10
2015,06,09,10,42,18.10
2015,06,09,10,43,18.10
2015,06,09,10,44,18.00
2015,06,09,10,45,18.00
2015,06,09,10,46,18.00
2015,06,09,10,47,18.00
2015,06,09,10,48,18.10
2015,06,09,10,49,18.10
2015,06,09,10,50,18.10
2015,06,09,10,51,18.20
2015,06,09,10,52,18.30
2015,06,09,10,53,18.30
2015,06,09,10,54,18.30
2015,06,09,10,55,18.30
2015,06,09,10,56,18.20
2015,06,09,10,57,18.10
2015,06,09,10,58,18.10
2015,06,09,10,59,18.10
2015,06,09,11,00,18.20
2015,06,09,11,01,18.20
2015,06,09,11,02,18.30
2015,06,09,11,03,18.30
2015,06,09,11,04,18.30
2015,06,09,11,05,18.30
2015,06,09,11,06,18.30
2015,06,09,11,07,18.30
2015,06,09,11,08,18.30
2015,06,09,11,09,18.30
2015,06,09,11,10,18.30
2015,06,09,11,11,18.20
2015,06,09,11,12,18.20
2015,06,09,11,13,18.10
2015,06,09,11,14,18.20
2015,06,09,11,15,18.30
2015,06,09,11,16,18.40
2015,06,09,11,17,18.50
2015,06,09,11,18,18.60
2015,06,09,11,19,18.70
2015,06,09,11,20,18.60
2015,06,09,11,21,18.70
2015,06,09,11,22,18.70
2015,06,09,11,23,18.80
2015,06,09,11,24,18.90
2015,06,09,11,25,19.10
2015,06,09,11,26,19.20
2015,06,09,11,27,19.20
2015,06,09,11,28,19.20
2015,06,09,11,29,19.30
2015,06,09,11,30,19.30
2015,06,09,11,31,19.30
2015,06,09,11,32,19.20
2015,06,09,11,33,19.20
2015,06,09,11,34,19.20
2015,06,09,11,35,19.20
2015,06,09,11,36,19.20
2015,06,09,11,37,19.20
2015,06,09,11,38,19.20
2015,06,09,11,39,19.20
2015,06,09,11,40,19.20
2015,06,09,11,41,19.20
2015,06,09,11,42,19.20
2015,06,09,11,43,19.20
2015,06,09,11,44,19.10
2015,06,09,11,45,19.00
2015,06,09,11,46,18.90
2015,06,09,11,47,19.00
2015,06,09,11,48,19.00
2015,06,09,11,49,19.10
2015,06,09,11,50,19.10
2015,06,09,11,51,19.10
2015,06,09,11,52,19.10
2015,06,09,11,53,19.20
2015,06,09,11,54,19.20
2015,06,09,11,55,19.20
2015,06,09,11,56,19.20
2015,06,09,11,57,19.30
2015,06,09,11,58,19.30
2015,06,09,11,59,19.40
2015,06,09,12,00,19.50
2015,06,09,12,01,19.50
2015,06,09,12,02,19.50
2015,06,09,12,03,19.40
2015,06,09,12,04,19.30
2015,06,09,12,05,19.20
2015,06,09,12,06,19.20
2015,06,09,12,07,19.20
2015,06,09,12,08,19.30
2015,06,09,12,09,19.40
2015,06,09,12,10,19.40
2015,06,09,12,11,19.40
2015,06,09,12,12,19.50
2015,06,09,12,13,19.60
2015,06,09,12,14,19.60
2015,06,09,12,15,19.60
2015,06,09,12,16,19.60
2015,06,09,12,17,19.60
2015,06,09,12,18,19.60
2015,06,09,12,19,19.60
2015,06,09,12,20,19.70
2015,06,09,12,21,19.80
2015,06,09,12,22,19.80
2015,06,09,12,23,19.80
2015,06,09,12,24,19.80
2015,06,09,12,25,19.80
2015,06,09,12,26,19.80
2015,06,09,12,27,19.80
2015,06,09,12,28,19.90
2015,06,09,12,29,19.90
2015,06,09,12,30,19.90
2015,06,09,12,31,19.80
2015,06,09,12,32,19.80
2015,06,09,12,33,19.80
2015,06,09,12,34,19.70
2015,06,09,12,35,19.70
2015,06,09,12,36,19.70
2015,06,09,12,37,19.70
2015,06,09,12,38,19.70
2015,06,09,12,39,19.70
2015,06,09,12,40,19.80
2015,06,09,12,41,19.90
2015,06,09,12,42,20.10
2015,06,09,12,43,20.10
2015,06,09,12,44,20.10
2015,06,09,12,45,20.00
2015,06,09,12,46,20.00
2015,06,09,12,47,20.00
2015,06,09,12,48,20.10
2015,06,09,12,49,20.10
2015,06,09,12,50,20.20
2015,06,09,12,51,20.30
2015,06,09,12,52,20.40
2015,06,09,12,53,20.40
2015,06,09,12,54,20.50
2015,06,09,12,55,20.60
2015,06,09,12,56,20.70
2015,06,09,12,57,20.70
2015,06,09,12,58,20.60
2015,06,09,12,59,20.70
2015,06,09,13,00,20.70
2015,06,09,13,01,20.70
2015,06,09,13,02,20.80
2015,06,09,13,03,20.80
2015,06,09,13,04,20.70
2015,06,09,13,05,20.60
2015,06,09,13,06,20.60
2015,06,09,13,07,20.60
2015,06,09,13,08,20.70
2015,06,09,13,09,20.70
2015,06,09,13,10,20.70
2015,06,09,13,11,20.80
2015,06,09,13,12,20.90
2015,06,09,13,13,20.90
2015,06,09,13,14,21.00
2015,06,09,13,15,20.90
2015,06,09,13,16,21.00
2015,06,09,13,17,21.00
2015,06,09,13,18,21.10
2015,06,09,13,19,21.10
2015,06,09,13,20,21.00
2015,06,09,13,21,21.00
2015,06,09,13,22,21.00
2015,06,09,13,23,21.00
2015,06,09,13,24,21.00
2015,06,09,13,25,20.90
2015,06,09,13,26,20.90
2015,06,09,13,27,20.80
2015,06,09,13,28,20.80
2015,06,09,13,29,20.80
2015,06,09,13,30,20.90
2015,06,09,13,31,21.00
2015,06,09,13,32,21.10
2015,06,09,13,33,21.20
2015,06,09,13,34,21.20
2015,06,09,13,35,21.20
2015,06,09,13,36,21.20
2015,06,09,13,37,21.20
2015,06,09,13,38,21.10
2015,06,09,13,39,21.10
2015,06,09,13,40,21.20
2015,06,09,13,41,21.20
2015,06,09,13,42,21.30
2015,06,09,13,43,21.40
2015,06,09,13,44,21.40
2015,06,09,13,45,21.40
2015,06,09,13,46,21.50
2015,06,09,13,47,21.50
2015,06,09,13,48,21.50
2015,06,09,13,49,21.50
2015,06,09,13,50,21.60
2015,06,09,13,51,21.60
2015,06,09,13,52,21.60
2015,06,09,13,53,21.60
2015,06,09,13,54,21.60
2015,06,09,13,55,21.60
2015,06,09,13,56,21.60
2015,06,09,13,57,21.60
2015,06,09,13,58,21.70
2015,06,09,13,59,21.80
2015,06,09,14,00,21.80
2015,06,09,14,01,21.70
2015,06,09,14,02,21.70
2015,06,09,14,03,21.70
2015,06,09,14,04,21.70
2015,06,09,14,05,21.60
2015,06,09,14,06,21.60
2015,06,09,14,07,21.70
2015,06,09,14,08,21.70
2015,06,09,14,09,21.70
2015,06,09,14,10,21.70
2015,06,09,14,11,21.70
2015,06,09,14,12,21.80
2015,06,09,14,13,21.80
2015,06,09,14,14,21.90
2015,06,09,14,15,21.90
2015,06,09,14,16,21.80
2015,06,09,14,17,21.80
2015,06,09,14,18,21.80
2015,06,09,14,19,21.90
2015,06,09,14,20,22.00
2015,06,09,14,21,22.00
2015,06,09,14,22,22.10
2015,06,09,14,23,22.10
2015,06,09,14,24,22.10
2015,06,09,14,25,22.00
2015,06,09,14,26,21.90
2015,06,09,14,27,21.80
2015,06,09,14,28,21.80
2015,06,09,14,29,21.90
2015,06,09,14,30,21.90
2015,06,09,14,31,21.90
2015,06,09,14,32,21.80
2015,06,09,14,33,21.70
2015,06,09,14,34,21.80
2015,06,09,14,35,21.80
2015,06,09,14,36,21.90
2015,06,09,14,37,21.90
2015,06,09,14,38,21.90
2015,06,09,14,39,21.90
2015,06,09,14,40,21.90
2015,06,09,14,41,21.90
2015,06,09,14,42,22.00
2015,06,09,14,43,22.10
2015,06,09,14,44,22.10
2015,06,09,14,45,22.20
2015,06,09,14,46,22.30
2015,06,09,14,47,22.40
2015,06,09,14,48,22.40
2015,06,09,14,49,22.40
2015,06,09,14,50,22.30
2015,06,09,14,51,22.30
2015,06,09,14,52,22.30
2015,06,09,14,53,22.40
2015,06,09,14,54,22.40
2015,06,09,14,55,22.50
2015,06,09,14,56,22.60
2015,06,09,14,57,22.70
2015,06,09,14,58,22.80
2015,06,09,14,59,22.80
2015,06,09,15,00,22.80
2015,06,09,15,01,22.80
2015,06,09,15,02,22.80
2015,06,09,15,03,22.80
2015,06,09,15,04,22.70
2015,06,09,15,05,22.70
2015,06,09,15,06,22.80
2015,06,09,15,07,22.80
2015,06,09,15,08,22.80
2015,06,09,15,09,22.90
2015,06,09,15,10,22.90
2015,06,09,15,11,22.90
2015,06,09,15,12,22.90
2015,06,09,15,13,22.80
2015,06,09,15,14,22.80
2015,06,09,15,15,22.80
2015,06,09,15,16,22.80
2015,06,09,15,17,22.80
2015,06,09,15,18,22.90
2015,06,09,15,19,23.00
2015,06,09,15,20,23.10
2015,06,09,15,21,23.10
2015,06,09,15,22,23.10
2015,06,09,15,23,23.20
2015,06,09,15,24,23.20
2015,06,09,15,25,23.20
2015,06,09,15,26,23.20
2015,06,09,15,27,23.20
2015,06,09,15,28,23.10
2015,06,09,15,29,23.10
2015,06,09,15,30,23.10
2015,06,09,15,31,23.10
2015,06,09,15,32,23.00
2015,06,09,15,33,22.90
2015,06,09,15,34,22.90
2015,06,09,15,35,23.00
2015,06,09,15,36,23.00
2015,06,09,15,37,23.10
2015,06,09,15,38,23.10
2015,06,09,15,39,23.20
2015,06,09,15,40,23.20
2015,06,09,15,41,23.30
2015,06,09,15,42,23.40
2015,06,09,15,43,23.50
2015,06,09,15,44,23.60
2015,06,09,15,45,23.70
2015,06,09,15,46,23.80
2015,06,09,15,47,23.90
2015,06,09,15,48,24.00
2015,06,09,15,49,24.00
2015,06,09,15,50,24.10
2015,06,09,15,51,24.00
2015,06,09,15,52,24.00
2015,06,09,15,53,23.90
2015,06,09,15,54,23.90
2015,06,09,15,55,23.80
2015,06,09,15,56,23.80
2015,06,09,15,57,23.70
2015,06,09,15,58,23.70
2015,06,09,15,59,23.70
2015,06,09,16,00,23.70
2015,06,09,16,01,23.70
2015,06,09,16,02,23.70
2015,06,09,16,03,23.70
2015,06,09,16,04,23.70
2015,06,09,16,05,23.70
2015,06,09,16,06,23.70
2015,06,09,16,07,23.70
2015,06,09,16,08,23.70
2015,06,09,16,09,23.70
2015,06,09,16,10,23.70
2015,06,09,16,11,23.80
2015,06,09,16,12,23.90
2015,06,09,16,13,23.90
2015,06,09,16,14,23.90
2015,06,09,16,15,23.90
2015,06,09,16,16,23.90
2015,06,09,16,17,23.90
2015,06,09,16,18,24.00
2015,06,09,16,19,24.00
2015,06,09,16,20,24.10
2015,06,09,16,21,24.10
2015,06,09,16,22,24.20
2015,06,09,16,23,24.20
2015,06,09,16,24,24.10
2015,06,09,16,25,24.10
2015,06,09,16,26,24.20
2015,06,09,16,27,24.30
2015,06,09,16,28,24.30
2015,06,09,16,29,24.40
2015,06,09,16,30,24.40
2015,06,09,16,31,24.50
2015,06,09,16,32,24.50
2015,06,09,16,33,24.50
2015,06,09,16,34,24.60
2015,06,09,16,35,24.60
2015,06,09,16,36,24.70
2015,06,09,16,37,24.70
2015,06,09,16,38,24.80
2015,06,09,16,39,24.80
2015,06,09,16,40,24.80
2015,06,09,16,41,24.80
2015,06,09,16,42,24.70
2015,06,09,16,43,24.70
2015,06,09,16,44,24.50
2015,06,09,16,45,24.40
2015,06,09,16,46,24.30
2015,06,09,16,47,24.30
2015,06,09,16,48,24.20
2015,06,09,16,49,24.10
2015,06,09,16,50,24.10
2015,06,09,16,51,24.00
2015,06,09,16,52,24.00
2015,06,09,16,53,24.00
2015,06,09,16,54,24.00
2015,06,09,16,55,24.00
2015,06,09,16,56,24.00
2015,06,09,16,57,24.00
2015,06,09,16,58,24.10
2015,06,09,16,59,24.10
2015,06,09,17,00,24.10
2015,06,09,17,01,24.00
2015,06,09,17,02,23.90
2015,06,09,17,03,23.90
2015,06,09,17,04,23.90
2015,06,09,17,05,24.00
2015,06,09,17,06,24.00
2015,06,09,17,07,24.10
2015,06,09,17,08,24.10
2015,06,09,17,09,24.10
2015,06,09,17,10,24.00
2015,06,09,17,11,24.00
2015,06,09,17,12,24.00
2015,06,09,17,13,24.00
2015,06,09,17,14,24.10
2015,06,09,17,15,24.10
2015,06,09,17,16,24.10
2015,06,09,17,17,24.00
2015,06,09,17,18,24.00
2015,06,09,17,19,23.90